Regional Weather Roundup
Issued by NWS

Home | Current Version | Previous Version | Text Only | Print | Product List | Glossary On
Versions: 1 2 3 4 5 6 7 8 9 10 11 12 13 14 15 16 17 18 19 20 21 22 23 24 25 26 27 28 29 30 31 32 33 34 35 36 37 38 39 40 41 42 43 44 45 46 47 48 49 50
000
ASUS45 KPSR 231810
RWRAZ

ARIZONA REGIONAL HOURLY WEATHER ROUNDUP
NATIONAL WEATHER SERVICE PHOENIX AZ
1100 AM MST WED APR 23 2014

NOTE: FAIR INDICATES FEW OR NO CLOUDS BELOW 12,000 FEET WITH NO
SIGNIFICANT WEATHER AND/OR OBSTRUCTIONS TO VISIBILITY.

AZZ001>003-036-231900-
NORTHWEST ARIZONA

CITY           SKY/WX    TMP DP  RH WIND       PRES   REMARKS
BULLHEAD CITY  SUNNY     73  16  11 N23G31    29.89R
KINGMAN        SUNNY     66   3   8 N21G30    29.95R
6HR MIN TEMP:  43; 6HR MAX TEMP:  66;

$$

AZZ004>008-015-016-018-231900-
NORTH CENTRAL ARIZONA

CITY           SKY/WX    TMP DP  RH WIND       PRES   REMARKS
GRAND CANYON   PTSUNNY   52   7  16 W13G20    29.98R
6HR MIN TEMP:  26; 6HR MAX TEMP:  53;

WILLIAMS       MOSUNNY   54   5  14 NW7       30.06R
PRESCOTT       SUNNY     63   6  10 N9G17     29.94R
6HR MIN TEMP:  40; 6HR MAX TEMP:  64;

FLAGSTAFF      PTSUNNY   54   5  14 SW12G25   29.97R
6HR MIN TEMP:  38; 6HR MAX TEMP:  55;

PAYSON         PTSUNNY   64  16  15 SW13      29.95S
PAGE           PTSUNNY   58  18  21 NW10G17   29.93R
6HR MIN TEMP:  52; 6HR MAX TEMP:  59;

$$

AZZ009>014-017-231900-
NORTHEAST ARIZONA

CITY           SKY/WX    TMP DP  RH WIND       PRES   REMARKS
WINSLOW        CLOUDY    67  15  13 W17G24    29.89R
6HR MIN TEMP:  46; 6HR MAX TEMP:  68;

SAINT JOHNS    SUNNY     66  18  15 SW23G33   29.90S
6HR MIN TEMP:  41; 6HR MAX TEMP:  67;

WINDOW ROCK    MOSUNNY   62  19  19 SW16G26   29.90F
6HR MIN TEMP:  44; 6HR MAX TEMP:  62;

SHOW LOW       SUNNY     61  14  16 SW28G37   29.97S
$$

AZZ023-231900-
GREATER PHOENIX AREA

CITY           SKY/WX    TMP DP  RH WIND       PRES   REMARKS
PHOENIX        MOSUNNY   78   8   7 W17       29.81F
6HR MIN TEMP:  70; 6HR MAX TEMP:  78;

BUCKEYE          N/A     75  14   9 W12G20    29.84F
GLENDALE       MOSUNNY   77  19  11 MISG      29.84S
LUKE AFB       NOT AVBL
6HR MIN TEMP:  60; 6HR MAX TEMP:  77;

DEER VALLEY    SUNNY     73  15  11 VRB3      29.83S
6HR MIN TEMP:  62; 6HR MAX TEMP:  74;

SCOTTSDALE     SUNNY     76  15  10 CALM      29.85S
6HR MIN TEMP:  65; 6HR MAX TEMP:  76;

MESA-FALCON    MOSUNNY   75  23  14 SW9       29.83
MESA-GATEWAY   MOSUNNY   79  19  11 VRB3      29.85S
CHANDLER       MOSUNNY   79  19  11 NW8       29.83S
$$

AZZ027-028-231900-
SOUTHWEST MARICOPA COUNTY AND PINAL COUNTY

CITY           SKY/WX    TMP DP  RH WIND       PRES   REMARKS
CASA GRANDE    SUNNY     79  12   8 SW10G16   29.85S
6HR MIN TEMP:  57; 6HR MAX TEMP:  79;

GILA BEND      PTCLDY    77  21  12 SW9       29.86S
$$

AZZ503-504-507>509-231900-
SOUTHEAST ARIZONA

CITY           SKY/WX    TMP DP  RH WIND       PRES   REMARKS
TUCSON         SUNNY     82  29  14 SW12      29.88S
6HR MIN TEMP:  62; 6HR MAX TEMP:  82;

DAVIS-MONTHAN  SUNNY     81  32  17 W13G23    29.87R
6HR MIN TEMP:  57; 6HR MAX TEMP:  80;

RYAN FIELD       N/A     81  32  17 W16       29.87S
NOGALES        SUNNY     76  26  15 S14G20    29.94S
6HR MIN TEMP:  51; 6HR MAX TEMP:  77;

SIERRA VISTA   SUNNY     73  23  15 W12G26    29.96S
DOUGLAS        SUNNY     76  19  11 SW13G23   29.94S
6HR MIN TEMP:  53; 6HR MAX TEMP:  77;

SAFFORD        SUNNY     76  25  15 VRB5      29.85F
6HR MIN TEMP:  59; 6HR MAX TEMP:  77;

$$

AZZ020-021-025-026-031-231900-
SOUTHWEST ARIZONA

CITY           SKY/WX    TMP DP  RH WIND       PRES   REMARKS
YUMA           PTSUNNY   80  25  13 VRB6      29.86R
6HR MIN TEMP:  64; 6HR MAX TEMP:  82;

$$

CAZ031-033-041-043-047-048-061-231900-
SOUTHERN CALIFORNIA

CITY           SKY/WX    TMP DP  RH WIND       PRES   REMARKS
DOWNTOWN L.A.  MOSUNNY   67  47  48 VRB5      29.96S
6HR MIN TEMP:  56; 6HR MAX TEMP:  68;

L.A. AIRPORT   PTSUNNY   68  43  40 E3        29.97R
6HR MIN TEMP:  56; 6HR MAX TEMP:  69;

SAN DIEGO      PTSUNNY   65  49  56 SW8       29.99R
6HR MIN TEMP:  60; 6HR MAX TEMP:  65;

BURBANK        MOSUNNY   66  36  32 S6        29.96S
6HR MIN TEMP:  52; 6HR MAX TEMP:  66;

ONTARIO        PTSUNNY   63  47  55 SW8       29.96S
6HR MIN TEMP:  52; 6HR MAX TEMP:  64;

RIVERSIDE      PTSUNNY   66  46  48 VRB5      29.97R
6HR MIN TEMP:  51; 6HR MAX TEMP:  66;

PALM SPRINGS   MOSUNNY   77  28  16 NW8       29.91R
6HR MIN TEMP:  61; 6HR MAX TEMP:  77;

EL CENTRO NAS  MOSUNNY   79  37  22 NW12G17   29.86F
6HR MIN TEMP:  62; 6HR MAX TEMP:  79;

IMPERIAL       SUNNY     78  40  25 N12       29.86S
6HR MIN TEMP:  59; 6HR MAX TEMP:  78;

BLYTHE         MOSUNNY   78  15   9 NW12G21   29.87R
6HR MIN TEMP:  58; 6HR MAX TEMP:  80;

NEEDLES        SUNNY     78   8   7 NE20G33   29.89R
6HR MIN TEMP:  63; 6HR MAX TEMP:  78;

$$

NVZ020-UTZ003-231900-
SOUTHERN NEVADA-UTAH

CITY           SKY/WX    TMP DP  RH WIND       PRES   REMARKS
LAS VEGAS      MOSUNNY   69  12  11 NW15G21   29.93R
6HR MIN TEMP:  61; 6HR MAX TEMP:  69;

SALT LAKE CITY PTSUNNY   46  26  45 W10G20    30.04R
6HR MIN TEMP:  39; 6HR MAX TEMP:  47;

$$

NMZ009-TXZ055-231900-
NEW MEXICO-WEST TEXAS

CITY           SKY/WX    TMP DP  RH WIND       PRES   REMARKS
ALBUQUERQUE    MOSUNNY   69  21  16 SW13      29.87F
6HR MIN TEMP:  53; 6HR MAX TEMP:  70;

EL PASO        MOSUNNY   80  24  12 SW21G26   29.88F
6HR MIN TEMP:  66; 6HR MAX TEMP:  80;

$$


........................KEY........................
SKY/WX - SKY CONDITION/WEATHER
TMP    - TEMPERATURE IN FAHRENHEIT
DP     - DEW POINT IN FAHRENHEIT
RH     - RELATIVE HUMIDITY IN PERCENT
WIND   - DIRECTION AND SPEED IN MILES PER HOUR (MPH)
VRB    - VARIABLE WIND DIRECTION
PRES   - MEAN SEA LEVEL PRESSURE IN INCHES OF MERCURY
         F - FALLING PRESSURE   R - RISING PRESSURE
         S - STEADY PRESSURE
VSB    - VISIBILITY IN MILES
HX     - HEAT INDEX IN FAHRENHEIT
WCI    - WIND CHILL INDEX IN FAHRENHEIT
TC     - TEMPERATURE IN CELSIUS WHICH IS ALSO KNOWN AS
         TEMPERATURE IN CENTIGRADE
AFB    - AIR FORCE BASE
         LUKE AFB IS LUKE AIR FORCE BASE
         DAVIS-MONTHAN IS DAVIS-MONTHAN AIR FORCE BASE
NAS    - NAVAL AIR STATION
         EL CENTRO NAS IS EL CENTRO NAVAL AIR STATION
N/A    - NOT AVAILABLE



USA.gov is the U.S. government's official web portal to all federal, state and local government web resources and services.